Location: La Brionne
(46.1728°N, 1.7849°E)
Time: 17:10:03
(UTC+00:00)

Cosmos 1544 Rocket - Pass Details

Date: 30 October 2021
Orbit: 603 x 632 km, 82.5° (Epoch: 27 November)

Event Time Altitude Azimuth Distance (km) Brightness Sun altitude
Rises 17:22:50 0° 191° (S) 2,911 7.3 -7.7°
Reaches altitude 10° 17:25:03 10° 193° (SSW) 2,007 6.5 -8.1°
Maximum altitude 17:29:31 77° 279° (W) 652 3.8 -8.9°
Drops below altitude 10° 17:33:59 10° 6° (N) 2,013 6.0 -9.6°
Sets 17:36:14 0° 8° (N) 2,920 6.8 -10.0°
